Weather in Demkino

Russia / Lipetsk Oblast     53°04′37″N   39°54′25″E
temp.,
°C
wind,
m/s
gust,
m/s
humid.,
%
clouds,
%
prec.,
mm/h
press.,
hPa
HPBL,
m
7 march, sun
sun700:00−9w3108433 0.0 1018302
03:00−11wsw388928 0.0 1017239
06:00−10sw49900 0.0 1015272
09:00−7sw6148238 0.0 1012601
12:00−4sw81575100 0.0 1008941
15:00−2sw91972100 0.0 10041296
18:00−2sw91889100 0.4 10001357
21:00−1wsw91982100 0.6 9981356
8 march, mon
mon800:00−3w71375100 0.9 999846
03:00−6wsw5138167 0.9 1002462
06:00−7wsw412830 0.0 1001377
09:00−5wsw5118441 0.0 1002594
12:00−2w6107098 0.1 10021309
15:00−3w697497 0.1 10031171
18:00−5w3108495 0.1 1005537
21:00−9nw269076 0.1 1008183
9 march, tue
tue900:00−11nw25910 0.0 1009134
03:00−12nw24930 0.0 1011115
06:00−13nnw259384 0.0 1012172
09:00−11nnw258592 0.0 1014266
12:00−9nw358091 0.0 1015505
15:00−8nw457795 0.0 1016728
18:00−11nw3786100 0.0 1017532
21:00−13nw388958 0.0 1020343
10 march, wed
wed1000:00−15nnw38890 0.0 1021287
03:00−17nw369322 0.0 1022211
06:00−19nnw369047 0.0 1024260
09:00−19nnw368632 0.0 1025282
12:00−16nnw357737 0.0 1027390
15:00−15nnw347518 0.0 1027422
18:00−16nw248525 0.0 1027292
21:00−18nnw238813 0.0 1029123
11 march, thu
thu1100:00−19nnw11880 0.0 102937
03:00−19sw00880 0.0 103020
06:00−19ssw11895 0.0 103024
09:00−15ssw237127 0.0 1031237
12:00−10ssw246284 0.0 1030404
15:00−9s366963 0.0 1029534
18:00−11s47850 0.0 1028258
21:00−12s49840 0.0 1028256